Time,TemperatureF,DewpointF,PressureIn,WindDirection,WindDirectionDegrees,WindSpeedMPH,WindSpeedGustMPH,Humidity,HourlyPrecipIn,Conditions,Clouds,dailyrainin,SolarRadiationWatts/m^2,SoftwareType,DateUTC
2013-07-06 00:02:00,60.0,-99.9,-100.00,South,169,0.0,4.0,0,0.00,,,0.00,0.000000,,2013-07-06 07:02:00,
2013-07-06 00:33:00,64.0,-99.9,-100.00,South,173,1.0,4.0,0,0.00,,,0.00,0.000000,,2013-07-06 07:33:00,
2013-07-06 00:44:00,64.0,-99.9,-100.00,South,173,1.0,4.0,0,0.00,,,0.00,0.000000,,2013-07-06 07:44:00,
2013-07-06 00:52:00,64.0,-99.9,-100.00,South,173,1.0,4.0,0,0.00,,,0.00,0.000000,,2013-07-06 07:52:00,
2013-07-06 01:02:00,64.0,-99.9,-100.00,South,173,1.0,4.0,0,0.00,,,0.00,0.000000,,2013-07-06 08:02:00,
2013-07-06 01:22:00,63.0,-99.9,-100.00,SSW,198,1.0,6.0,0,0.00,,,0.00,0.000000,,2013-07-06 08:22:00,
2013-07-06 01:34:00,63.0,-99.9,-100.00,SSW,198,1.0,6.0,0,0.00,,,0.00,0.000000,,2013-07-06 08:34:00,
2013-07-06 01:43:00,63.0,-99.9,-100.00,SSW,198,1.0,6.0,0,0.00,,,0.00,0.000000,,2013-07-06 08:43:00,
2013-07-06 01:54:00,63.0,-99.9,-100.00,SSW,198,1.0,6.0,0,0.00,,,0.00,0.000000,,2013-07-06 08:54:00,
2013-07-06 02:02:00,63.0,-99.9,-100.00,SSW,198,1.0,6.0,0,0.00,,,0.00,0.000000,,2013-07-06 09:02:00,
2013-07-06 02:22:00,64.0,-99.9,-100.00,South,173,3.0,5.0,0,0.00,,,0.00,0.000000,,2013-07-06 09:22:00,
2013-07-06 02:34:00,64.0,-99.9,-100.00,South,173,3.0,5.0,0,0.00,,,0.00,0.000000,,2013-07-06 09:34:00,
2013-07-06 02:43:00,64.0,-99.9,-100.00,South,173,3.0,5.0,0,0.00,,,0.00,0.000000,,2013-07-06 09:43:00,
2013-07-06 02:53:00,64.0,-99.9,-100.00,South,173,3.0,5.0,0,0.00,,,0.00,0.000000,,2013-07-06 09:53:00,
2013-07-06 03:02:00,64.0,-99.9,-100.00,South,173,3.0,5.0,0,0.00,,,0.00,0.000000,,2013-07-06 10:02:00,
2013-07-06 03:22:00,62.0,-99.9,-100.00,SSW,200,2.0,7.0,0,0.00,,,0.00,0.000000,,2013-07-06 10:22:00,
2013-07-06 03:33:00,62.0,-99.9,-100.00,SSW,200,2.0,7.0,0,0.00,,,0.00,0.000000,,2013-07-06 10:33:00,
2013-07-06 03:43:00,62.0,-99.9,-100.00,SSW,200,2.0,7.0,0,0.00,,,0.00,0.000000,,2013-07-06 10:43:00,
2013-07-06 03:53:00,62.0,-99.9,-100.00,SSW,200,2.0,7.0,0,0.00,,,0.00,0.000000,,2013-07-06 10:53:00,
2013-07-06 04:01:00,62.0,-99.9,-100.00,SSW,200,2.0,7.0,0,0.00,,,0.00,0.000000,,2013-07-06 11:01:00,
2013-07-06 04:22:00,62.0,-99.9,-100.00,SSW,208,2.0,5.0,0,0.00,,,0.00,0.000000,,2013-07-06 11:22:00,
2013-07-06 04:33:00,62.0,-99.9,-100.00,SSW,208,2.0,5.0,0,0.00,,,0.00,0.000000,,2013-07-06 11:33:00,
2013-07-06 04:43:00,62.0,-99.9,-100.00,SSW,208,2.0,5.0,0,0.00,,,0.00,0.000000,,2013-07-06 11:43:00,
2013-07-06 04:53:00,62.0,-99.9,-100.00,SSW,208,2.0,5.0,0,0.00,,,0.00,0.000000,,2013-07-06 11:53:00,
2013-07-06 05:01:00,62.0,-99.9,-100.00,SSW,208,2.0,5.0,0,0.00,,,0.00,0.000000,,2013-07-06 12:01:00,
2013-07-06 05:34:00,60.0,-99.9,-100.00,South,175,0.0,5.0,0,0.00,,,0.00,0.000000,,2013-07-06 12:34:00,
2013-07-06 05:43:00,60.0,-99.9,-100.00,South,175,0.0,5.0,0,0.00,,,0.00,0.000000,,2013-07-06 12:43:00,
2013-07-06 05:52:00,60.0,-99.9,-100.00,South,175,0.0,5.0,0,0.00,,,0.00,0.000000,,2013-07-06 12:52:00,
2013-07-06 06:01:00,60.0,-99.9,-100.00,South,175,0.0,5.0,0,0.00,,,0.00,0.000000,,2013-07-06 13:01:00,
2013-07-06 06:33:00,59.0,-99.9,-100.00,SSW,211,0.0,6.0,0,0.00,,,0.00,10.000000,,2013-07-06 13:33:00,
2013-07-06 06:43:00,59.0,-99.9,-100.00,SSW,211,0.0,6.0,0,0.00,,,0.00,10.000000,,2013-07-06 13:43:00,
2013-07-06 06:52:00,59.0,-99.9,-100.00,SSW,211,0.0,6.0,0,0.00,,,0.00,10.000000,,2013-07-06 13:52:00,
2013-07-06 07:02:00,59.0,-99.9,-100.00,SSW,211,0.0,6.0,0,0.00,,,0.00,10.000000,,2013-07-06 14:02:00,
2013-07-06 08:02:00,69.0,-99.9,-100.00,SSW,198,0.0,3.0,0,0.00,,,0.00,130.000000,,2013-07-06 15:02:00,
2013-07-06 10:03:00,80.0,-99.9,-100.00,ENE,67,3.0,10.0,0,-99.99,,,0.00,546.000000,,2013-07-06 17:03:00,
2013-07-06 10:47:00,80.0,-99.9,-100.00,ENE,67,3.0,10.0,0,-99.99,,,0.00,546.000000,,2013-07-06 17:47:00,
2013-07-06 11:03:00,80.0,-99.9,-100.00,WNW,288,3.0,10.0,0,0.00,,,0.00,523.000000,,2013-07-06 18:03:00,
2013-07-06 11:40:00,80.0,-99.9,-100.00,WNW,288,3.0,10.0,0,0.00,,,0.00,523.000000,,2013-07-06 18:40:00,
2013-07-06 11:53:00,80.0,-99.9,-100.00,WNW,288,3.0,10.0,0,0.00,,,0.00,523.000000,,2013-07-06 18:53:00,
2013-07-06 12:03:00,82.0,-99.9,-100.00,West,265,5.0,11.0,0,0.00,,,0.00,990.000000,,2013-07-06 19:03:00,
2013-07-06 12:36:00,82.0,-99.9,-100.00,West,265,5.0,11.0,0,0.00,,,0.00,990.000000,,2013-07-06 19:36:00,
2013-07-06 14:52:00,69.0,-99.9,-100.00,East,94,8.0,20.0,0,0.00,,,0.00,253.000000,,2013-07-06 21:52:00,
2013-07-06 15:03:00,63.0,-99.9,-100.00,North,349,1.0,22.0,0,0.00,,,0.00,142.000000,,2013-07-06 22:03:00,
2013-07-06 15:38:00,63.0,-99.9,-100.00,North,349,1.0,22.0,0,0.00,,,0.00,142.000000,,2013-07-06 22:38:00,
2013-07-06 15:52:00,63.0,-99.9,-100.00,North,349,1.0,22.0,0,0.00,,,0.00,142.000000,,2013-07-06 22:52:00,
2013-07-06 16:03:00,60.0,-99.9,-100.00,NW,311,0.0,13.0,0,0.12,,,0.12,14.000000,,2013-07-06 23:03:00,
2013-07-06 16:35:00,60.0,-99.9,-100.00,NW,311,0.0,13.0,0,0.12,,,0.12,14.000000,,2013-07-06 23:35:00,
2013-07-06 16:54:00,60.0,-99.9,-100.00,NW,311,0.0,13.0,0,0.12,,,0.12,14.000000,,2013-07-06 23:54:00,
2013-07-06 17:02:00,60.0,-99.9,-100.00,NW,311,0.0,13.0,0,0.12,,,0.12,14.000000,,2013-07-07 00:02:00,
2013-07-06 17:03:00,60.0,-99.9,-100.00,ESE,105,7.0,7.0,0,0.06,,,0.18,9.000000,,2013-07-07 00:03:00,
2013-07-06 18:03:00,66.0,-99.9,-100.00,NW,319,3.0,11.0,0,0.00,,,0.18,286.000000,,2013-07-07 01:03:00,
2013-07-06 18:52:00,66.0,-99.9,-100.00,NW,319,3.0,11.0,0,0.00,,,0.18,286.000000,,2013-07-07 01:52:00,
2013-07-06 19:36:00,65.0,-99.9,-100.00,North,5,4.0,6.0,0,0.00,,,0.18,106.000000,,2013-07-07 02:36:00,
2013-07-06 20:35:00,59.0,-99.9,-100.00,SSW,192,0.0,8.0,0,0.00,,,0.18,16.000000,,2013-07-07 03:35:00,
2013-07-06 20:47:00,59.0,-99.9,-100.00,SSW,192,0.0,8.0,0,0.00,,,0.18,16.000000,,2013-07-07 03:47:00,
2013-07-06 21:01:00,59.0,-99.9,-100.00,SSW,192,0.0,8.0,0,0.00,,,0.18,16.000000,,2013-07-07 04:01:00,
2013-07-06 21:02:00,59.0,-99.9,-100.00,SSW,192,0.0,8.0,0,0.00,,,0.18,16.000000,,2013-07-07 04:02:00,
2013-07-06 21:21:00,55.0,-99.9,-100.00,SSE,159,2.0,5.0,0,0.00,,,0.18,0.000000,,2013-07-07 04:21:00,
2013-07-06 21:31:00,55.0,-99.9,-100.00,SSE,159,2.0,5.0,0,0.00,,,0.18,0.000000,,2013-07-07 04:31:00,
2013-07-06 21:42:00,55.0,-99.9,-100.00,SSE,159,2.0,5.0,0,0.00,,,0.18,0.000000,,2013-07-07 04:42:00,
2013-07-06 21:52:00,55.0,-99.9,-100.00,SSE,159,2.0,5.0,0,0.00,,,0.18,0.000000,,2013-07-07 04:52:00,
2013-07-06 22:01:00,55.0,-99.9,-100.00,SSE,159,2.0,5.0,0,0.00,,,0.18,0.000000,,2013-07-07 05:01:00,
2013-07-06 22:21:00,55.0,-99.9,-100.00,SW,232,0.0,6.0,0,0.00,,,0.18,0.000000,,2013-07-07 05:21:00,
2013-07-06 22:32:00,55.0,-99.9,-100.00,SW,232,0.0,6.0,0,0.00,,,0.18,0.000000,,2013-07-07 05:32:00,
2013-07-06 22:41:00,55.0,-99.9,-100.00,SW,232,0.0,6.0,0,0.00,,,0.18,0.000000,,2013-07-07 05:41:00,
2013-07-06 22:51:00,55.0,-99.9,-100.00,SW,232,0.0,6.0,0,0.00,,,0.18,0.000000,,2013-07-07 05:51:00,
2013-07-06 23:01:00,55.0,-99.9,-100.00,SW,232,0.0,6.0,0,0.00,,,0.18,0.000000,,2013-07-07 06:01:00,
2013-07-06 23:22:00,54.0,-99.9,-100.00,WSW,247,0.0,4.0,0,0.00,,,0.18,0.000000,,2013-07-07 06:22:00,
2013-07-06 23:32:00,54.0,-99.9,-100.00,WSW,247,0.0,4.0,0,0.00,,,0.18,0.000000,,2013-07-07 06:32:00,
2013-07-06 23:43:00,54.0,-99.9,-100.00,WSW,247,0.0,4.0,0,0.00,,,0.18,0.000000,,2013-07-07 06:43:00,
2013-07-06 23:52:00,54.0,-99.9,-100.00,WSW,247,0.0,4.0,0,0.00,,,0.18,0.000000,,2013-07-07 06:52:00,